Location: Colle Pacifico
(43.5333°N, 13.3167°E)
Time: 18:48:09
(UTC+00:00)

BREEZE-M DEB (TANK) - Pass Details

Date: 07 June 2020
Orbit: 273 x 20509 km, 49.2° (Epoch: 11 July)

Event Time Altitude Azimuth Distance (km) Brightness Sun altitude
Exits shadow 01:19:36 23° 306° (NW) 676 3.3 -16.9°
Maximum altitude 01:20:22 31° 351° (N) 569 3.4 -16.8°
Drops below altitude 10° 01:23:00 10° 58° (ENE) 1,622 6.2 -16.6°
Sets 01:26:26 0° 69° (ENE) 3,409 7.8 -16.2°
